Flag for U.S.A. Weather past 2 weeks in Scottsdale, Arizona, U.S.A.

Now
96 °F

Sunny.


Feels Like: 95 °F
Forecast: 83 / 101 °F
Wind: 3 mph from North

Location: Scottsdale Airport

Current Time: Jul 3, 2015 at 5:19:32 PM

Latest Report: Jul 3, 2015 at 4:53 PM


Visibility: 10 mi

Pressure: 29.67 "Hg

Humidity: 28%

Dew point: 58 °F

Location of ScottsdaleLocation

Historic Weather in Scottsdale — Graph

°F

Scottsdale temperature yesterday

Maximum temperature yesterday: 103 °F (at 3:53 PM)
Minimum temperature yesterday: 84 °F (at 5:53 AM)
Average temperature yesterday: 95 °F

Past Weeks' High & Low Weather Summary

 TemperatureHumidityPressure
High112 °F (Jun 18, 4:53 PM)70% (Jun 27, 2:53 AM)29.90 "Hg (Jun 27, 2:53 AM)
Low77 °F (Jun 20, 5:53 AM)2% (Jun 19, 5:53 PM)29.64 "Hg (Jun 19, 5:53 PM)
Average95 °F24%29.77 "Hg
* Reported Jun 18 3:53 PM — Jul 3 3:53 PM, Scottsdale, Weather by CustomWeather, © 2015

Note: Actual official high and low records may vary slightly from our data, if they occured in-between our weather recording intervals... More about our weather records

Advertising

Scottsdale weather history for previous 24 hours

 ConditionsComfort  
Time TempWeatherWind HumidityBarometerVisibility
3:53 PM
Fri, Jul 3
97 °FSunny.8 mph28%29.70 "Hg10 mi
2:53 PM95 °FPassing clouds.8 mph28%29.73 "Hg10 mi
1:53 PM94 °FSunny.6 mph31%29.75 "Hg10 mi
12:53 PM92 °FSunny.5 mph35%29.78 "Hg10 mi
11:53 AM90 °FSunny.3 mph37%29.80 "Hg10 mi
10:53 AM89 °FSunny.5 mph41%29.83 "Hg10 mi
9:53 AM87 °FSunny.3 mph45%29.84 "Hg10 mi
8:53 AM87 °FSunny.No wind43%29.85 "Hg10 mi
7:53 AM84 °FSunny.No wind49%29.85 "Hg10 mi
6:53 AM82 °FLight rain. Broken clouds.6 mph56%29.85 "Hg10 mi
5:53 AM80 °FLight rain. Partly sunny.9 mph67%29.86 "Hg10 mi
4:53 AM88 °FClear.5 mph40%29.78 "Hg10 mi
3:53 AM89 °FClear.No wind38%29.74 "Hg10 mi
2:53 AM89 °FThunderstorms. Clear.5 mph38%29.76 "Hg10 mi
1:53 AM89 °FThunderstorms. Passing clouds.9 mph42%29.75 "Hg10 mi
12:53 AM92 °FThundershowers. Passing clouds.No wind36%29.73 "Hg10 mi
11:53 PM
Thu, Jul 2
95 °FThunderstorms. Clear.6 mph26%29.72 "Hg10 mi
10:53 PM97 °FClear.9 mph23%29.72 "Hg10 mi
9:53 PM98 °FClear.3 mph22%29.72 "Hg10 mi
8:53 PM99 °FClear.5 mph21%29.70 "Hg10 mi
7:53 PM100 °FClear.8 mph20%29.69 "Hg10 mi
6:53 PM101 °FSunny.10 mph20%29.67 "Hg10 mi
5:53 PM102 °FSunny.10 mph20%29.67 "Hg10 mi
Weather by CustomWeather, © 2015

See weather overviewHow to use our weather pages